When you browse on this site, cookies collect data to enhance your experience and personalize the content and advertising you see.
Visit our Privacy Policy to learn more. By continuing to use the site, you agree to this use of cookies and data.
  • In Romania
  • List of Countries
  • For 7 days
  • Water Temperature
  • Weather Map
  • Weather Widgets
  • user-avatar
    Login

    Hourly Weather Carlisle

    Today, 16 December, Monday

    Time Temperature Precipitation Wind Pressure Humidity
    00:00 +3°C° 0 mm 4 mps 739 mmHg 93%
    01:00 +3°C° 0.2 mm 4 mps 739 mmHg 92%
    02:00 +2°C° 0.2 mm 5 mps 739 mmHg 92%
    03:00 +2°C° 0.2 mm 6 mps 739 mmHg 91%
    04:00 +2°C° 0.5 mm 5 mps 739 mmHg 92%
    05:00 +2°C° 0.5 mm 5 mps 739 mmHg 92%
    06:00 +3°C° 0 mm 4 mps 740 mmHg 93%
    07:00 +3°C° 0.1 mm 4 mps 740 mmHg 92%
    08:00 +3°C° 0.1 mm 4 mps 741 mmHg 90%
    09:00 +1°C° 0.1 mm 5 mps 742 mmHg 89%
    10:00 +2°C° 0 mm 5 mps 743 mmHg 86%
    11:00 +3°C° 0 mm 6 mps 743 mmHg 83%
    12:00 +3°C° 0 mm 7 mps 743 mmHg 80%
    13:00 +3°C° 0 mm 6 mps 744 mmHg 81%
    14:00 +3°C° 0 mm 6 mps 744 mmHg 83%
    15:00 +2°C° 0 mm 5 mps 744 mmHg 84%
    16:00 +2°C° 0 mm 5 mps 744 mmHg 85%
    17:00 +1°C° 0 mm 4 mps 744 mmHg 87%
    18:00 +1°C° 0 mm 4 mps 744 mmHg 89%
    19:00 +1°C° 0 mm 4 mps 744 mmHg 89%
    20:00 +1°C° 0 mm 4 mps 744 mmHg 90%
    21:00 +1°C° 0 mm 4 mps 745 mmHg 91%
    22:00 +1°C° 0 mm 4 mps 745 mmHg 91%
    23:00 +1°C° 0 mm 4 mps 745 mmHg 91%

    Tomorrow, 17 December, Tuesday

    Time Temperature Precipitation Wind Pressure Humidity
    00:00 +1°C° 0 mm 4 mps 745 mmHg 91%
    01:00 +1°C° 0 mm 4 mps 745 mmHg 91%
    02:00 +1°C° 0 mm 4 mps 745 mmHg 91%
    03:00 +1°C° 0 mm 4 mps 744 mmHg 90%
    04:00 +1°C° 0 mm 4 mps 744 mmHg 91%
    05:00 +1°C° 0 mm 4 mps 744 mmHg 91%
    06:00 +2°C° 0 mm 3 mps 744 mmHg 91%
    07:00 +2°C° 0 mm 3 mps 745 mmHg 92%
    08:00 +2°C° 0 mm 3 mps 745 mmHg 92%
    09:00 +2°C° 0 mm 3 mps 745 mmHg 93%
    10:00 +3°C° 0 mm 3 mps 745 mmHg 92%
    11:00 +3°C° 0 mm 3 mps 746 mmHg 92%
    12:00 +4°C° 0 mm 3 mps 746 mmHg 91%
    13:00 +4°C° 0 mm 2 mps 746 mmHg 91%
    14:00 +4°C° 0 mm 2 mps 746 mmHg 92%
    15:00 +4°C° 0 mm 2 mps 746 mmHg 92%
    16:00 +3°C° 0 mm 2 mps 747 mmHg 92%
    17:00 +3°C° 0 mm 2 mps 747 mmHg 93%
    18:00 +2°C° 0 mm 2 mps 747 mmHg 93%
    19:00 +2°C° 0 mm 2 mps 748 mmHg 92%
    20:00 +2°C° 0 mm 2 mps 748 mmHg 92%
    21:00 +2°C° 0 mm 2 mps 749 mmHg 91%
    22:00 +2°C° 0 mm 2 mps 749 mmHg 91%
    23:00 +2°C° 0 mm 2 mps 750 mmHg 91%

    Day after tomorrow, 18 December, Wednesday

    Time Temperature Precipitation Wind Pressure Humidity
    00:00 +2°C° 0 mm 2 mps 750 mmHg 90%
    01:00 +2°C° 0 mm 2 mps 750 mmHg 91%
    02:00 +2°C° 0 mm 2 mps 751 mmHg 91%
    03:00 +2°C° 0 mm 2 mps 751 mmHg 92%
    04:00 +2°C° 0 mm 2 mps 751 mmHg 92%
    05:00 +2°C° 0 mm 2 mps 751 mmHg 92%
    06:00 +2°C° 0 mm 2 mps 751 mmHg 92%
    07:00 +2°C° 0 mm 2 mps 751 mmHg 91%
    08:00 +1°C° 0 mm 2 mps 751 mmHg 89%
    09:00 +1°C° 0 mm 2 mps 752 mmHg 88%
    10:00 +2°C° 0 mm 2 mps 752 mmHg 85%
    11:00 +2°C° 0 mm 3 mps 751 mmHg 83%
    12:00 +3°C° 0 mm 3 mps 751 mmHg 80%
    13:00 +3°C° 0 mm 3 mps 751 mmHg 83%
    14:00 +3°C° 0 mm 3 mps 750 mmHg 86%
    15:00 +3°C° 0 mm 3 mps 750 mmHg 88%
    16:00 +3°C° 0 mm 4 mps 749 mmHg 89%
    17:00 +2°C° 0 mm 5 mps 749 mmHg 90%
    18:00 +2°C° 0 mm 5 mps 748 mmHg 91%
    19:00 +3°C° 0.2 mm 6 mps 748 mmHg 90%
    20:00 +3°C° 0.2 mm 7 mps 747 mmHg 89%
    21:00 +4°C° 0.2 mm 7 mps 747 mmHg 88%
    22:00 +4°C° 0.4 mm 7 mps 746 mmHg 89%
    23:00 +4°C° 0.4 mm 7 mps 745 mmHg 90%

    19 December, Thursday

    Time Temperature Precipitation Wind Pressure Humidity
    00:00 +5°C° 0.4 mm 6 mps 744 mmHg 91%
    01:00 +5°C° 0.3 mm 6 mps 743 mmHg 91%
    02:00 +6°C° 0.3 mm 5 mps 743 mmHg 92%
    03:00 +6°C° 0.3 mm 5 mps 742 mmHg 92%
    04:00 +6°C° 0 mm 4 mps 742 mmHg 93%
    05:00 +6°C° 0 mm 4 mps 742 mmHg 93%
    06:00 +7°C° 0 mm 3 mps 743 mmHg 93%
    07:00 +7°C° 0 mm 3 mps 743 mmHg 94%
    08:00 +7°C° 0 mm 3 mps 743 mmHg 94%
    09:00 +7°C° 0 mm 2 mps 743 mmHg 94%
    10:00 +8°C° 0 mm 2 mps 743 mmHg 94%
    11:00 +8°C° 0 mm 2 mps 743 mmHg 94%
    12:00 +8°C° 0 mm 2 mps 743 mmHg 94%
    13:00 +8°C° 0 mm 2 mps 742 mmHg 93%
    14:00 +8°C° 0 mm 2 mps 742 mmHg 93%
    15:00 +7°C° 0 mm 2 mps 742 mmHg 93%
    16:00 +7°C° 0 mm 2 mps 742 mmHg 93%
    17:00 +7°C° 0 mm 2 mps 742 mmHg 93%
    18:00 +6°C° 0 mm 2 mps 741 mmHg 93%
    19:00 +6°C° 0 mm 2 mps 741 mmHg 94%
    20:00 +6°C° 0 mm 2 mps 741 mmHg 94%
    21:00 +7°C° 0 mm 2 mps 741 mmHg 94%
    22:00 +7°C° 0 mm 2 mps 740 mmHg 94%
    23:00 +7°C° 0 mm 2 mps 740 mmHg 94%

    20 December, Friday

    Time Temperature Precipitation Wind Pressure Humidity
    00:00 +7°C° 0 mm 2 mps 739 mmHg 94%
    01:00 +7°C° 0.2 mm 2 mps 739 mmHg 95%
    02:00 +8°C° 0.2 mm 1 mps 738 mmHg 95%
    03:00 +8°C° 0.2 mm 1 mps 738 mmHg 95%
    04:00 +8°C° 0.6 mm 1 mps 737 mmHg 96%
    05:00 +8°C° 0.6 mm 1 mps 736 mmHg 96%
    06:00 +8°C° 0.6 mm 1 mps 736 mmHg 97%
    07:00 +8°C° 1.3 mm 1 mps 735 mmHg 97%
    08:00 +8°C° 1.3 mm 1 mps 735 mmHg 97%
    09:00 +7°C° 1.3 mm 2 mps 735 mmHg 98%
    10:00 +7°C° 1.4 mm 2 mps 734 mmHg 97%
    11:00 +7°C° 1.4 mm 3 mps 734 mmHg 97%
    12:00 +7°C° 1.4 mm 3 mps 734 mmHg 97%
    13:00 +7°C° 0.6 mm 3 mps 734 mmHg 96%
    14:00 +7°C° 0.6 mm 4 mps 734 mmHg 96%
    15:00 +7°C° 0.6 mm 4 mps 734 mmHg 95%
    16:00 +6°C° 0.1 mm 4 mps 735 mmHg 95%
    17:00 +6°C° 0.1 mm 4 mps 736 mmHg 95%
    18:00 +6°C° 0.1 mm 4 mps 736 mmHg 94%
    19:00 +5°C° 0 mm 4 mps 737 mmHg 94%
    20:00 +5°C° 0 mm 3 mps 738 mmHg 93%
    21:00 +4°C° 0 mm 3 mps 738 mmHg 92%
    22:00 +4°C° 0 mm 3 mps 739 mmHg 93%
    23:00 +3°C° 0 mm 3 mps 739 mmHg 93%

    21 December, Saturday

    Time Temperature Precipitation Wind Pressure Humidity
    00:00 +3°C° 0 mm 3 mps 740 mmHg 93%
    01:00 +3°C° 0 mm 3 mps 740 mmHg 93%
    02:00 +3°C° 0 mm 3 mps 741 mmHg 93%
    03:00 +3°C° 0 mm 3 mps 741 mmHg 93%
    04:00 +3°C° 0 mm 3 mps 741 mmHg 94%
    05:00 +3°C° 0 mm 3 mps 742 mmHg 94%
    06:00 +3°C° 0 mm 3 mps 742 mmHg 95%
    07:00 +3°C° 0 mm 3 mps 742 mmHg 95%
    08:00 +3°C° 0 mm 3 mps 742 mmHg 95%
    09:00 +4°C° 0 mm 3 mps 742 mmHg 95%
    10:00 +4°C° 0 mm 3 mps 742 mmHg 93%
    11:00 +5°C° 0 mm 3 mps 742 mmHg 91%
    12:00 +6°C° 0 mm 4 mps 742 mmHg 89%
    13:00 +5°C° 0 mm 3 mps 741 mmHg 90%
    14:00 +5°C° 0 mm 3 mps 741 mmHg 90%
    15:00 +4°C° 0 mm 3 mps 740 mmHg 90%
    16:00 +4°C° 0.1 mm 3 mps 739 mmHg 90%
    17:00 +4°C° 0.1 mm 4 mps 738 mmHg 89%
    18:00 +4°C° 0.1 mm 4 mps 737 mmHg 88%
    19:00 +3°C° 0.8 mm 5 mps 736 mmHg 89%
    20:00 +5°C° 0.8 mm 5 mps 736 mmHg 90%
    21:00 +4°C° 0.8 mm 6 mps 735 mmHg 91%
    22:00 +5°C° 0.2 mm 5 mps 735 mmHg 91%
    23:00 +5°C° 0.2 mm 5 mps 735 mmHg 92%
    Show more